Powrót do katalogu

SL-12 DEB

LostHEO
NORAD 28985·DEBRIS·🇷🇺 Russia

Wystrzelony Jul 30, 1992 z Baikonur Cosmodrome

Loading…

Następne Przeloty (najbliższe 24 godziny)

TLE

NieaktualneSource: Space-Track

Epoka: Jul 23, 2017, 18:33 UTC

1 28985U 92047AN  17204.77302166 -.00000011  00000-0  00000-0 0  9993
2 28985  64.0875 130.0837 3771459 322.9356  16.1756  6.52731338268361

Śledź SL-12 DEB w czasie rzeczywistym z AllMySat

Download on the App Store